METEOR 1-5

导读 | 星芒AI

METEOR 1-5 是苏联于1969年至1974年间发射的一系列气象卫星,主要用于收集和转发地球表面的气象数据。这些卫星运行在低地球轨道,搭载了多种遥感仪器,能够监测温度、湿度和大气压力等参数。METEOR 系列为苏联的天气预报和气候研究提供了重要支持,是苏联早期气象卫星计划的重要组成部分。

基本信息
目录编号:
4419
目录名称:
METEOR 1-5
国际标识:
1970-047A
轨道中心:
EARTH
卫星名称:
METEOR 1-5
卫星全名:
--
卫星状态:
在轨 (已飞行20217 天)
发射日期:
1970-06-23 UTC
国别 :
俄罗斯(独联体) (CIS)
星等 :
--
轨道信息
数据来源 国际轨道数据
星历时间: 2025-10-28T19:20:53+0800
20小时前
查看轨道信息
半长轴: 7216.67km
偏心率: 0.0039378
轨道倾角: 81.214°
近地点辐角 357.605°
升交点赤经 104.293°
平近点角 2.493°
近地点: 810.117km
远地点: 866.953km
周期: 101.687分钟
每日圈数: 14.161119
详细信息
使用方式:
暂无
2D轨道图
3D轨道图
轨道高度分析图
轨道倾角分析图
轨道综合分析图
查看轨道综合分析图